Stillwater, OK

12:01 PM CDT on March 29, 2017 (GMT -0500)
Stillwater Municipal

Weather History for KSWO - July, 2013

Change the Weather History Date:

Monday, July 15, 2013

  Actual Average Record
Temperature  
Mean Temperature 68 °F -  
Max Temperature 73 °F 92 °F 109 °F (2011)
Min Temperature 64 °F 69 °F 59 °F (2014)
Cooling Degree Days 3    
Growing Degree Days 18 (Base 50)    
Moisture  
Dew Point 65 °F    
Average Humidity 90    
Maximum Humidity 94    
Minimum Humidity 84    
Precipitation  
Precipitation 0.48 in - - ()
Sea Level Pressure  
Sea Level Pressure 30.08 in    
Wind  
Wind Speed 7 mph (ENE)    
Max Wind Speed 18 mph    
Max Gust Speed 29 mph    
Visibility 8 miles    
Events      
Averages and records for this station are not official NWS values.
T = Trace of Precipitation, MM = Missing Value Source: NWS Daily Summary

Daily Weather History Graph

Daily Weather History Graph

Search for Another Location

Airport or City:

Trip Planner

Search our weather history database for the weather conditions in past years. The results will help you decide how hot, cold, wet, or windy it might be!

Date:

Astronomy

Jul. 15, 2013 Rise Set
Actual Time 6:22 AM CDT 8:45 PM CDT
Civil Twilight 5:53 AM CDT 9:14 PM CDT
Nautical Twilight 5:17 AM CDT 9:51 PM CDT
Astronomical Twilight 4:37 AM CDT 10:31 PM CDT
Moon 1:28 PM CDT (7/15) 12:12 AM CDT (7/15)
Length of Visible Light 15h 21m
Length of Day
14h 22m
Waxing Crescent, 45% of the Moon is Illuminated
Jul 15
Waxing Crescent
Jul 15
First Quarter
Jul 22
Full
Jul 29
Last Quarter
Aug 6
New

Hourly Weather History & Observations

Time (CDT) Temp. Dew Point Humidity Pressure Visibility Wind Dir Wind Speed Gust Speed Precip Events Conditions
12:53 AM 64.9 °F 63.0 °F 93% 30.04 in 9.0 mi Calm Calm - N/A   Clear
1:53 AM 66.0 °F 63.0 °F 90% 30.07 in 10.0 mi South 15.0 mph 28.8 mph N/A   Overcast
2:35 AM 66.2 °F 62.6 °F 88% 30.08 in 10.0 mi SW 3.5 mph - N/A   Overcast
2:42 AM 66.2 °F 62.6 °F 88% 30.08 in 10.0 mi Calm Calm - N/A   Overcast
2:53 AM 66.0 °F 62.1 °F 87% 30.04 in 7.0 mi Variable 4.6 mph - 0.02 in   Overcast
3:53 AM 64.9 °F 62.1 °F 90% 30.04 in 10.0 mi NW 3.5 mph - N/A   Overcast
4:53 AM 64.9 °F 63.0 °F 93% 30.05 in 10.0 mi North 8.1 mph - 0.02 in   Overcast
5:53 AM 66.0 °F 64.0 °F 93% 30.08 in 8.0 mi ENE 3.5 mph - 0.01 in   Overcast
6:53 AM 64.9 °F 63.0 °F 93% 30.08 in 6.0 mi NE 8.1 mph - 0.11 in   Overcast
7:53 AM 66.0 °F 63.0 °F 90% 30.05 in 10.0 mi NE 12.7 mph - 0.02 in   Overcast
8:19 AM 64.4 °F 62.6 °F 94% 30.10 in 2.5 mi East 4.6 mph - 0.07 in   Overcast
8:26 AM 66.2 °F 64.4 °F 94% 30.09 in 6.0 mi ENE 5.8 mph - 0.07 in   Overcast
8:53 AM 66.0 °F 64.0 °F 93% 30.06 in 10.0 mi NE 5.8 mph - 0.08 in   Overcast
9:53 AM 68.0 °F 64.9 °F 90% 30.06 in 10.0 mi NNE 10.4 mph - 0.06 in   Overcast
10:53 AM 69.1 °F 66.0 °F 90% 30.06 in 10.0 mi NE 8.1 mph - 0.01 in   Overcast
11:53 AM 69.1 °F 66.0 °F 90% 30.06 in 6.0 mi NE 11.5 mph - 0.02 in   Overcast
12:20 PM 69.8 °F 66.2 °F 88% 30.09 in 2.5 mi ENE 17.3 mph 24.2 mph 0.04 in   Overcast
12:29 PM 69.8 °F 66.2 °F 88% 30.09 in 1.0 mi ENE 13.8 mph - 0.10 in   Overcast
12:43 PM 69.8 °F 66.2 °F 88% 30.08 in 2.0 mi ENE 12.7 mph 19.6 mph 0.12 in   Overcast
12:47 PM 69.8 °F 66.2 °F 88% 30.08 in 2.5 mi ENE 13.8 mph 19.6 mph 0.12 in   Overcast
12:53 PM 70.0 °F 68.0 °F 93% 30.05 in 2.5 mi ENE 16.1 mph 20.7 mph 0.13 in   Overcast
1:02 PM 69.8 °F 68.0 °F 94% 30.08 in 4.0 mi East 16.1 mph 24.2 mph N/A   Overcast
1:53 PM 71.1 °F 68.0 °F 90% 30.06 in 10.0 mi SE 16.1 mph 24.2 mph N/A   Overcast
2:19 PM 71.6 °F 68.0 °F 88% 30.10 in 10.0 mi SE 18.4 mph 26.5 mph N/A   Overcast
2:53 PM 72.0 °F 66.9 °F 84% 30.08 in 10.0 mi SE 16.1 mph 24.2 mph N/A   Overcast
6:53 PM 71.1 °F 66.0 °F 84% 30.08 in 10.0 mi SE 9.2 mph - N/A   Scattered Clouds
8:53 PM 70.0 °F 68.0 °F 93% 30.09 in 10.0 mi Calm Calm - N/A   Mostly Cloudy
10:53 PM 70.0 °F 68.0 °F 93% 30.14 in 10.0 mi Calm Calm - N/A   Mostly Cloudy
11:53 PM 70.0 °F 68.0 °F 93% 30.16 in 10.0 mi Calm Calm - N/A   Mostly Cloudy